Sioux Falls, SD

2:46 PM CST on February 06, 2016 (GMT -0600)
Foss

Weather History for KFSD - June, 2013

Change the Weather History Date:

Friday, June 21, 2013

  Actual Average Record
Temperature  
Mean Temperature 77 °F 70 °F  
Max Temperature 87 °F 81 °F 110 °F (1988)
Min Temperature 67 °F 58 °F 34 °F (1902)
Degree Days  
Heating Degree Days 0 1  
Month to date heating degree days 69 46  
Since 1 June heating degree days 69 46  
Since 1 July heating degree days 7884 7701  
Cooling Degree Days 12 6  
Month to date cooling degree days 72 76  
Year to date cooling degree days 114 112  
Since 1 June cooling degree days 72 76  
Growing Degree Days 28 (Base 50)    
Moisture  
Dew Point 67 °F    
Average Humidity 74    
Maximum Humidity 90    
Minimum Humidity 52    
Precipitation  
Precipitation 0.20 in 0.13 in 1.91 in (1984)
Month to date precipitation 2.99 2.78  
Year to date precipitation 15.30 12.11  
Snow  
Snow 0.00 in 0.00 in 0.00 in ()
Month to date snowfall 0.0 0.0  
Since 1 June snowfall 0.0 0.0  
Since 1 July snowfall 43.3 44.5  
Snow Depth 0.00 in    
Sea Level Pressure  
Sea Level Pressure 29.81 in    
Wind  
Wind Speed 14 mph (ESE)    
Max Wind Speed 29 mph    
Max Gust Speed 37 mph    
Visibility 9 miles    
Events Rain , Thunderstorm    
T = Trace of Precipitation, MM = Missing Value Source: NWS Daily Summary

Daily Weather History Graph

Daily Weather History Graph

Search for Another Location

Airport or City:

Trip Planner

Search our weather history database for the weather conditions in past years. The results will help you decide how hot, cold, wet, or windy it might be!

Date:

Astronomy

Jun. 21, 2013 Rise Set
Actual Time 5:45 AM CDT 9:11 PM CDT
Civil Twilight 5:09 AM CDT 9:47 PM CDT
Nautical Twilight 4:22 AM CDT 10:34 PM CDT
Astronomical Twilight 3:23 AM CDT 11:34 PM CDT
Moon 7:21 PM CDT (6/21) 4:05 AM CDT (6/21)
Length of Visible Light 16h 38m
Length of Day
15h 26m
Waxing Gibbous, 95% of the Moon is Illuminated
Jun 21
Waxing Gibbous
Jun 23
Full
Jun 29
Last Quarter
Jul 8
New
Jul 15
First Quarter

Hourly Weather History & Observations

Time (CDT) Temp. Heat Index Dew Point Humidity Pressure Visibility Wind Dir Wind Speed Gust Speed Precip Events Conditions
12:56 AM 80.1 °F 83.2 °F 70.0 °F 71% 29.77 in 10.0 mi SSE 12.7 mph - N/A   Partly Cloudy
1:56 AM 79.0 °F - 71.1 °F 77% 29.74 in 10.0 mi South 11.5 mph - N/A   Scattered Clouds
2:56 AM 80.1 °F 83.6 °F 71.1 °F 74% 29.76 in 10.0 mi South 10.4 mph 18.4 mph N/A   Mostly Cloudy
3:56 AM 79.0 °F - 71.1 °F 77% 29.77 in 10.0 mi South 10.4 mph - N/A   Scattered Clouds
4:56 AM 78.1 °F - 71.1 °F 79% 29.80 in 10.0 mi Calm Calm - N/A   Mostly Cloudy
5:56 AM 75.0 °F - 71.1 °F 87% 29.80 in 10.0 mi NNE 8.1 mph - N/A   Overcast
6:56 AM 75.0 °F - 72.0 °F 90% 29.80 in 10.0 mi ENE 5.8 mph - N/A   Mostly Cloudy
7:03 AM 75.2 °F - 71.6 °F 89% 29.83 in 10.0 mi East 6.9 mph - N/A   Mostly Cloudy
7:56 AM 75.9 °F - 72.0 °F 87% 29.80 in 10.0 mi East 11.5 mph - N/A   Mostly Cloudy
8:15 AM 77.0 °F - 71.6 °F 83% 29.82 in 10.0 mi ESE 12.7 mph - N/A   Mostly Cloudy
8:56 AM 79.0 °F - 73.0 °F 82% 29.78 in 10.0 mi SSE 13.8 mph - N/A   Scattered Clouds
9:46 AM 80.6 °F 84.6 °F 71.6 °F 74% 29.85 in 10.0 mi SSE 11.5 mph - N/A   Overcast
9:56 AM 81.0 °F 85.2 °F 72.0 °F 74% 29.80 in 10.0 mi ESE 11.5 mph - N/A   Mostly Cloudy
10:41 AM 78.8 °F - 69.8 °F 74% 29.84 in 10.0 mi ESE 19.6 mph 31.1 mph N/A   Mostly Cloudy
10:56 AM 77.0 °F - 68.0 °F 74% 29.81 in 10.0 mi ESE 20.7 mph 29.9 mph N/A   Mostly Cloudy
11:18 AM 78.8 °F - 69.8 °F 74% 29.83 in 10.0 mi SE 16.1 mph 25.3 mph N/A   Mostly Cloudy
11:56 AM 81.0 °F 84.4 °F 70.0 °F 69% 29.79 in 10.0 mi SE 19.6 mph 26.5 mph N/A   Mostly Cloudy
12:56 PM 84.9 °F 90.1 °F 71.1 °F 63% 29.75 in 10.0 mi SE 21.9 mph 27.6 mph N/A   Mostly Cloudy
1:56 PM 87.1 °F 92.0 °F 70.0 °F 57% 29.73 in 10.0 mi SE 21.9 mph 28.8 mph N/A   Mostly Cloudy
2:56 PM 86.0 °F 91.5 °F 71.1 °F 61% 29.72 in 10.0 mi SSE 18.4 mph 34.5 mph N/A   Mostly Cloudy
3:56 PM 87.1 °F 90.6 °F 68.0 °F 53% 29.79 in 10.0 mi SSW 12.7 mph 25.3 mph N/A   Overcast
4:56 PM 84.9 °F 88.8 °F 69.1 °F 59% 29.79 in 10.0 mi WSW 3.5 mph - 0.00 in Rain Light Rain
5:20 PM 73.4 °F - 62.6 °F 69% 29.85 in 10.0 mi North 20.7 mph 35.7 mph 0.00 in   Overcast
5:56 PM 70.0 °F - 60.1 °F 71% 29.83 in 10.0 mi North 26.5 mph 34.5 mph 0.00 in   Overcast
6:56 PM 73.0 °F - 59.0 °F 61% 29.82 in 6.0 mi NNE 26.5 mph 33.4 mph N/A   Haze
7:56 PM 72.0 °F - 57.0 °F 59% 29.84 in 10.0 mi NE 18.4 mph 32.2 mph N/A   Mostly Cloudy
8:56 PM 70.0 °F - 59.0 °F 68% 29.81 in 10.0 mi ENE 16.1 mph - N/A   Mostly Cloudy
9:24 PM 69.8 °F - 60.8 °F 73% 29.85 in 10.0 mi ENE 12.7 mph 21.9 mph N/A Thunderstorm Thunderstorm
9:56 PM 70.0 °F - 62.1 °F 76% 29.85 in 10.0 mi NE 13.8 mph - N/A Thunderstorm Thunderstorm
10:21 PM 69.8 °F - 62.6 °F 78% 29.85 in 10.0 mi ENE 12.7 mph - 0.00 in Rain , Thunderstorm Light Thunderstorms and Rain
10:56 PM 69.1 °F - 62.1 °F 78% 29.83 in 10.0 mi NE 16.1 mph - 0.00 in Rain , Thunderstorm Light Thunderstorms and Rain
11:33 PM 68.0 °F - 64.4 °F 88% 29.91 in 5.0 mi WSW 19.6 mph 36.8 mph 0.00 in Rain , Thunderstorm Light Thunderstorms and Rain
11:38 PM 68.0 °F - 64.4 °F 88% 29.88 in 2.5 mi West 17.3 mph 36.8 mph 0.06 in Rain , Thunderstorm Heavy Thunderstorms and Rain
11:50 PM 68.0 °F - 64.4 °F 88% 29.83 in 4.0 mi NNW 19.6 mph 24.2 mph 0.19 in Rain , Thunderstorm Thunderstorms and Rain
11:56 PM 69.1 °F - 64.9 °F 87% 29.81 in 8.0 mi North 10.4 mph 17.3 mph 0.20 in Thunderstorm Thunderstorm